Location: Harwich
(41.7160°N, 69.9939°W)
Time: 06:18:11
(UTC+02:00)

SEEDS - Visible Passes

Search period start: 19 September 2024 00:00
Search period end: 29 September 2024 00:00
Orbit: 541 x 549 km, 97.7° (Epoch: 18 September)

Date Brightness Start Highest point End Pass type
(mag) Time Alt. Az. Time Alt. Az. Time Alt. Az.
19 Sep ? 10:33:57 10° NNE 10:37:53 65° ESE 10:40:23 21° S visible
20 Sep ? 10:28:11 10° NNE 10:32:04 54° E 10:34:26 22° S visible
21 Sep ? 10:22:24 10° NNE 10:26:13 46° E 10:28:26 22° SSE visible
22 Sep ? 10:16:37 10° NNE 10:20:20 39° E 10:22:24 22° SSE visible
22 Sep ? 11:52:09 10° NNW 11:54:37 16° WNW 11:57:06 10° WSW visible
23 Sep ? 10:10:49 10° NNE 10:14:24 33° E 10:16:21 21° SE visible
23 Sep ? 11:45:59 10° NNW 11:48:46 19° WNW 11:51:33 10° WSW visible
24 Sep ? 10:05:00 10° NE 10:08:26 28° E 10:10:15 20° SE visible
24 Sep ? 11:39:51 10° NNW 11:42:53 22° WNW 11:45:50 10° WSW visible
25 Sep ? 09:59:11 10° NE 10:02:25 24° E 10:04:07 18° SE visible
25 Sep ? 11:33:43 10° NNW 11:36:57 25° WNW 11:39:42 13° WSW visible
26 Sep ? 09:53:23 10° NE 09:56:23 21° E 09:57:56 17° SE visible
26 Sep ? 11:27:34 10° N 11:31:00 29° WNW 11:33:31 15° WSW visible
27 Sep ? 09:47:36 10° NE 09:50:18 18° E 09:51:44 15° ESE visible
27 Sep ? 11:21:25 10° N 11:24:59 33° WNW 11:27:19 18° SW visible
28 Sep ? 09:41:51 10° NE 09:44:10 15° E 09:45:29 13° ESE visible
28 Sep ? 11:15:15 10° N 11:18:57 39° WNW 11:21:04 21° SW visible
